Regional Weather Roundup
Issued by NWS

Home | Current Version | Previous Version | Graphics & Text | Print | Product List | Glossary On
Versions: 1 2 3 4 5 6 7 8 9 10 11 12 13 14 15 16 17 18 19 20 21 22 23 24 25 26 27 28 29 30 31 32 33 34 35 36 37 38 39 40 41 42 43 44 45 46 47 48 49 50
000
ASUS43 KLMK 241002
RWRKY
KENTUCKY REGIONAL WEATHER ROUNDUP
NATIONAL WEATHER SERVICE LOUISVILLE KY
600 AM EDT MON APR 24 2017

NOTE "FAIR" INDICATES FEW OR NO CLOUDS BELOW 12,000 FEET
WITH NO SIGNIFICANT WEATHER AND/OR OBSTRUCTIONS TO VISIBILITY.

KYZ001>023-026-027-061>063-070>075-241100-
WESTERN AND SOUTH CENTRAL KENTUCKY

CITY           SKY/WX    TMP DP  RH WIND       PRES   REMARKS
PADUCAH        CLEAR     50  39  66 NW5       29.87F
HENDERSON      CLEAR     52  39  61 N8        29.89S
OWENSBORO      CLEAR     53  40  61 NE5       29.87F
HOPKINSVILLE   CLOUDY    53  50  87 NE12      29.84S
BOWLING GREEN  CLOUDY    54  51  90 N7        29.84S
GLASGOW        NOT AVBL
$$

KYZ024-025-028>034-038-045-046-053-241100-
NORTH CENTRAL KENTUCKY

CITY           SKY/WX    TMP DP  RH WIND       PRES   REMARKS
LOUISVILLE/SDF MOCLDY    55  43  63 N6        29.87S
LOUISVILLE/LOU PTCLDY    54  43  66 N6        29.87F
FORT KNOX      CLOUDY    54  45  72 N7        29.84F
$$

KYZ035>037-039>044-047>052-055>060-089>105-241100-
NORTHEAST KENTUCKY

CITY           SKY/WX    TMP DP  RH WIND       PRES   REMARKS
LEXINGTON      CLOUDY    55  44  66 N9        29.86F
COVINGTON      PTCLDY    51  38  60 NE10      29.90F
FRANKFORT      CLOUDY    58  42  55 NE9       29.86F
$$

KYZ054-064>069-076>088-106>120-241100-
SOUTHEAST KENTUCKY

CITY           SKY/WX    TMP DP  RH WIND       PRES   REMARKS
JACKSON        PTCLDY    49  47  93 VRB6      29.85S
LONDON         CLOUDY    52  48  86 NE7       29.83F
SOMERSET       CLOUDY    52  50  93 E5        29.85S
MIDDLESBORO    CLOUDY    51  51 100 CALM      29.84R
MONTICELLO     CLOUDY    53  51  93 VRB5      29.84S
$$




USA.gov is the U.S. government's official web portal to all federal, state and local government web resources and services.